| time (UTC) | temp C | wind direction | speed KPH | gust KPH | rain 1hr cm | rain 24hr cm | rain mn cm | humidity % | barometer mb |
| 20260901145222 | 21 | 236 | 0.0 | 0.0 | 0.00 | 1.09 | 1.09 | 95 | 1016.2 |
| 20260901144718 | 21 | 150 | 0.0 | 0.0 | 0.00 | 1.09 | 1.09 | 95 | 1016.0 |
| 20260901144213 | 21 | 150 | 0.0 | 0.0 | 0.00 | 1.09 | 1.09 | 95 | 1016.0 |
| 20260901143708 | 21 | 172 | 0.0 | 0.0 | 0.00 | 1.09 | 1.09 | 95 | 1016.0 |
| 20260901143205 | 21 | 170 | 0.0 | 0.0 | 0.00 | 1.09 | 1.09 | 95 | 1015.8 |
| 20260901142701 | 20 | 142 | 1.6 | 3.2 | 0.00 | 1.09 | 1.09 | 95 | 1015.9 |
| 20260901142159 | 21 | 166 | 1.6 | 3.2 | 0.00 | 1.09 | 1.09 | 95 | 1015.9 |
| 20260901141654 | 21 | 173 | 0.0 | 0.0 | 0.00 | 1.09 | 1.09 | 95 | 1015.9 |
| 20260901141149 | 20 | 147 | 0.0 | 0.0 | 0.00 | 1.09 | 1.09 | 95 | 1015.6 |
| 20260901140648 | 20 | 159 | 0.0 | 0.0 | 0.00 | 1.09 | 1.09 | 95 | 1015.6 |
| 20260901140146 | 20 | 163 | 0.0 | 0.0 | 0.00 | 1.09 | 1.09 | 95 | 1015.9 |
| 20260901135642 | 20 | 137 | 0.0 | 0.0 | 0.00 | 1.09 | 1.09 | 95 | 1015.9 |
| 20260901135136 | 20 | 163 | 0.0 | 0.0 | 0.00 | 1.09 | 1.09 | 95 | 1016.0 |
| 20260901134633 | 20 | 126 | 1.6 | 1.6 | 0.00 | 1.09 | 1.09 | 95 | 1015.8 |
| 20260901134127 | 20 | 147 | 0.0 | 0.0 | 0.00 | 1.09 | 1.09 | 95 | 1015.9 |
| 20260901133627 | 20 | 127 | 0.0 | 1.6 | 0.00 | 1.09 | 1.09 | 95 | 1015.9 |
| 20260901133125 | 20 | 144 | 0.0 | 0.0 | 0.00 | 1.09 | 1.09 | 95 | 1016.1 |
| 20260901132620 | 20 | 148 | 0.0 | 0.0 | 0.00 | 1.09 | 1.09 | 95 | 1016.1 |
| 20260901132119 | 20 | 120 | 1.6 | 1.6 | 0.00 | 1.09 | 1.09 | 95 | 1016.3 |
| 20260901131620 | 20 | 166 | 0.0 | 0.0 | 0.00 | 1.09 | 1.09 | 95 | 1016.5 |
| 20260901131114 | 20 | 160 | 0.0 | 0.0 | 0.00 | 1.09 | 1.09 | 95 | 1016.0 |
| 20260901130610 | 20 | 141 | 0.0 | 1.6 | 0.00 | 1.09 | 1.09 | 95 | 1016.2 |
| 20260901130108 | 20 | 136 | 1.6 | 1.6 | 0.00 | 1.09 | 1.09 | 95 | 1016.3 |
| 20260901125606 | 20 | 134 | 0.0 | 0.0 | 0.00 | 1.09 | 1.09 | 95 | 1016.3 |
| 20260901125101 | 20 | 125 | 0.0 | 0.0 | 0.00 | 1.09 | 1.09 | 95 | 1016.2 |
| 20260901124556 | 20 | 135 | 0.0 | 1.6 | 0.00 | 1.09 | 1.09 | 95 | 1016.0 |
| 20260901124051 | 20 | 130 | 0.0 | 0.0 | 0.00 | 1.09 | 1.09 | 95 | 1016.2 |
| 20260901123546 | 19 | 119 | 1.6 | 1.6 | 0.00 | 1.09 | 1.09 | 95 | 1016.7 |
| 20260901123045 | 19 | 127 | 3.2 | 3.2 | 0.00 | 1.09 | 1.09 | 95 | 1016.8 |
| 20260901122543 | 19 | 154 | 0.0 | 1.6 | 0.00 | 1.09 | 1.09 | 95 | 1016.8 |
| 20260901122037 | 19 | 131 | 0.0 | 0.0 | 0.00 | 1.09 | 1.09 | 95 | 1016.9 |
| 20260901121532 | 19 | 177 | 0.0 | 0.0 | 0.00 | 1.09 | 1.09 | 95 | 1017.1 |
| 20260901121028 | 19 | 150 | 0.0 | 0.0 | 0.00 | 1.09 | 1.09 | 95 | 1016.8 |
| 20260901120527 | 19 | 124 | 0.0 | 0.0 | 0.00 | 1.09 | 1.09 | 95 | 1016.8 |
| 20260901120023 | 19 | 97 | 0.0 | 0.0 | 0.00 | 1.09 | 1.09 | 95 | 1016.5 |
| 20260901115518 | 19 | 169 | 0.0 | 0.0 | 0.00 | 1.09 | 1.09 | 95 | 1016.7 |
| 20260901115015 | 18 | 138 | 0.0 | 0.0 | 0.00 | 1.09 | 1.09 | 95 | 1016.5 |
| 20260901114511 | 18 | 136 | 0.0 | 0.0 | 0.18 | 1.09 | 1.09 | 95 | 1016.8 |
| 20260901114009 | 18 | 116 | 3.2 | 3.2 | 0.30 | 1.09 | 1.09 | 95 | 1016.4 |
| 20260901113508 | 18 | 155 | 0.0 | 0.0 | 0.61 | 1.07 | 1.07 | 95 | 1016.5 |
| 20260901113004 | 18 | 164 | 0.0 | 0.0 | 4.45 | 1.04 | 1.04 | 95 | 1016.9 |
| 20260901112458 | 18 | 165 | 0.0 | 0.0 | 3.96 | 0.97 | 0.97 | 95 | 1016.9 |
| 20260901111954 | 18 | 167 | 0.0 | 0.0 | 0.00 | 0.30 | 0.30 | 95 | 1017.0 |
| 20260901111452 | 18 | 179 | 0.0 | 0.0 | 0.00 | 0.30 | 0.30 | 95 | 1017.1 |
| 20260901110950 | 18 | 200 | 0.0 | 0.0 | 0.00 | 0.30 | 0.30 | 95 | 1016.7 |
| 20260901110446 | 18 | 149 | 0.0 | 0.0 | 0.00 | 0.30 | 0.30 | 95 | 1016.3 |
| 20260901105942 | 18 | 149 | 0.0 | 0.0 | 0.13 | 0.30 | 0.30 | 95 | 1016.2 |
| 20260901105438 | 18 | 146 | 0.0 | 0.0 | 0.30 | 0.30 | 0.30 | 95 | 1016.1 |
| 20260901104933 | 18 | 230 | 1.6 | 3.2 | 0.18 | 0.28 | 0.28 | 95 | 1016.3 |
| 20260901104428 | 18 | 165 | 0.0 | 0.0 | 0.00 | 0.25 | 0.25 | 95 | 1016.4 |
| 20260901103923 | 18 | 169 | 0.0 | 0.0 | 0.43 | 0.25 | 0.25 | 95 | 1016.3 |
| 20260901103418 | 18 | 161 | 0.0 | 0.0 | 0.79 | 0.25 | 0.25 | 95 | 1016.4 |
| 20260901102913 | 18 | 151 | 0.0 | 0.0 | 0.18 | 0.15 | 0.15 | 95 | 1016.3 |
| 20260901102413 | 18 | 152 | 0.0 | 0.0 | 0.00 | 0.13 | 0.13 | 95 | 1016.1 |
| 20260901101908 | 18 | 146 | 0.0 | 0.0 | 0.00 | 0.13 | 0.13 | 95 | 1016.0 |
| 20260901101403 | 18 | 164 | 0.0 | 0.0 | 0.00 | 0.13 | 0.13 | 95 | 1015.9 |
| 20260901100902 | 18 | 161 | 0.0 | 0.0 | 0.00 | 0.13 | 0.13 | 95 | 1016.0 |
| 20260901100357 | 18 | 155 | 0.0 | 0.0 | 0.00 | 0.13 | 0.13 | 95 | 1016.0 |
| 20260901095851 | 18 | 144 | 0.0 | 0.0 | 0.00 | 0.13 | 0.13 | 95 | 1016.1 |
| 20260901095348 | 18 | 145 | 0.0 | 0.0 | 0.00 | 0.13 | 0.13 | 95 | 1016.2 |
| 20260901094842 | 18 | 140 | 0.0 | 0.0 | 0.00 | 0.13 | 0.13 | 95 | 1016.3 |
| 20260901094337 | 18 | 148 | 0.0 | 0.0 | 0.00 | 0.13 | 0.13 | 95 | 1016.3 |
| 20260901093832 | 18 | 157 | 0.0 | 0.0 | 0.00 | 0.13 | 0.13 | 95 | 1016.0 |
| 20260901093331 | 18 | 150 | 0.0 | 0.0 | 0.00 | 0.13 | 0.13 | 95 | 1016.3 |
| 20260901092827 | 18 | 164 | 0.0 | 0.0 | 0.00 | 0.13 | 0.13 | 95 | 1016.5 |
| 20260901092322 | 18 | 153 | 0.0 | 0.0 | 0.00 | 0.13 | 0.13 | 95 | 1016.4 |
| 20260901091818 | 18 | 140 | 0.0 | 0.0 | 0.00 | 0.13 | 0.13 | 95 | 1016.3 |
| 20260901091313 | 18 | 123 | 0.0 | 0.0 | 0.00 | 0.13 | 0.13 | 95 | 1016.3 |
| 20260901090808 | 18 | 166 | 0.0 | 0.0 | 0.00 | 0.13 | 0.13 | 95 | 1016.5 |
| 20260901090303 | 18 | 165 | 0.0 | 0.0 | 0.00 | 0.13 | 0.13 | 95 | 1016.4 |
| 20260901085759 | 18 | 148 | 0.0 | 0.0 | 0.00 | 0.13 | 0.13 | 95 | 1016.2 |
| 20260901085253 | 18 | 131 | 1.6 | 1.6 | 0.00 | 0.13 | 0.13 | 95 | 1016.7 |
| 20260901084749 | 18 | 132 | 0.0 | 0.0 | 0.00 | 0.13 | 0.13 | 95 | 1016.7 |
| 20260901084245 | 18 | 113 | 0.0 | 1.6 | 0.00 | 0.13 | 0.13 | 95 | 1016.9 |
| 20260901083740 | 18 | 139 | 0.0 | 1.6 | 0.00 | 0.13 | 0.13 | 95 | 1016.8 |
| 20260901083240 | 18 | 144 | 0.0 | 0.0 | 0.13 | 0.13 | 0.13 | 95 | 1016.9 |
| 20260901082738 | 18 | 165 | 0.0 | 0.0 | 0.13 | 0.13 | 0.13 | 95 | 1017.0 |
| 20260901082233 | 18 | 137 | 0.0 | 0.0 | 0.30 | 0.10 | 0.10 | 95 | 1017.0 |
| 20260901081729 | 18 | 157 | 0.0 | 0.0 | 0.48 | 0.10 | 0.10 | 95 | 1017.2 |
| 20260901081229 | 18 | 156 | 0.0 | 0.0 | 0.18 | 0.05 | 0.05 | 95 | 1017.2 |
| 20260901080724 | 18 | 155 | 0.0 | 0.0 | 0.00 | 0.03 | 0.03 | 95 | 1017.3 |
| 20260901080222 | 18 | 145 | 0.0 | 0.0 | 0.00 | 0.03 | 0.03 | 95 | 1017.1 |
| 20260901075717 | 18 | 144 | 0.0 | 0.0 | 0.00 | 0.03 | 0.03 | 95 | 1017.3 |
| 20260901075212 | 18 | 144 | 0.0 | 0.0 | 0.13 | 0.03 | 0.03 | 95 | 1017.1 |
| 20260901074706 | 18 | 153 | 0.0 | 0.0 | 0.13 | 0.03 | 0.03 | 95 | 1017.2 |
| 20260901074201 | 18 | 154 | 0.0 | 0.0 | 0.00 | 0.00 | 0.00 | 95 | 1017.1 |
| 20260901073658 | 18 | 154 | 0.0 | 0.0 | 0.00 | 0.00 | 0.00 | 95 | 1017.2 |
| 20260901073153 | 18 | 153 | 0.0 | 0.0 | 0.00 | 0.00 | 0.00 | 95 | 1017.3 |
| 20260901072648 | 18 | 143 | 0.0 | 0.0 | 0.00 | 0.00 | 0.00 | 95 | 1017.1 |
| 20260901072142 | 18 | 157 | 0.0 | 0.0 | 0.00 | 0.00 | 0.00 | 95 | 1017.1 |
| 20260901071637 | 18 | 157 | 0.0 | 0.0 | 0.00 | 0.00 | 0.00 | 95 | 1017.1 |
| 20260901071137 | 18 | 157 | 0.0 | 0.0 | 0.00 | 0.00 | 0.00 | 95 | 1017.2 |
| 20260901070631 | 18 | 157 | 0.0 | 0.0 | 0.00 | 0.00 | 0.00 | 95 | 1017.4 |
| 20260901070127 | 18 | 157 | 0.0 | 0.0 | 0.00 | 0.00 | 0.00 | 95 | 1017.5 |
| 20260901065620 | 18 | 157 | 0.0 | 0.0 | 0.00 | 0.00 | 0.00 | 95 | 1017.5 |
| 20260901065115 | 18 | 158 | 0.0 | 0.0 | 0.00 | 0.00 | 0.00 | 95 | 1017.4 |
| 20260901064612 | 18 | 160 | 0.0 | 0.0 | 0.00 | 0.00 | 0.00 | 95 | 1017.3 |
| 20260901064108 | 18 | 156 | 0.0 | 0.0 | 0.00 | 0.00 | 0.00 | 95 | 1017.3 |
| 20260901063605 | 18 | 156 | 0.0 | 0.0 | 0.00 | 0.00 | 0.00 | 95 | 1017.4 |
| 20260901063101 | 18 | 157 | 0.0 | 0.0 | 0.00 | 0.00 | 0.00 | 95 | 1017.5 |
| 20260901062556 | 18 | 157 | 0.0 | 0.0 | 0.00 | 0.00 | 0.00 | 95 | 1017.2 |
| 20260901062052 | 18 | 157 | 0.0 | 0.0 | 0.00 | 0.00 | 0.00 | 95 | 1017.5 |
| 20260901061548 | 18 | 151 | 0.0 | 0.0 | 0.00 | 0.00 | 0.00 | 95 | 1017.4 |
| 20260901061043 | 18 | 150 | 0.0 | 0.0 | 0.00 | 0.00 | 0.00 | 95 | 1017.7 |
| 20260901060537 | 18 | 151 | 0.0 | 0.0 | 0.00 | 0.00 | 0.00 | 95 | 1017.5 |
| 20260901060032 | 18 | 152 | 0.0 | 0.0 | 0.00 | 0.00 | 0.00 | 95 | 1017.5 |
| 20260901055527 | 18 | 152 | 0.0 | 0.0 | 0.00 | 0.00 | 0.00 | 95 | 1017.5 |
| 20260901055024 | 18 | 152 | 0.0 | 0.0 | 0.00 | 0.00 | 0.00 | 95 | 1017.7 |
| 20260901054521 | 18 | 151 | 0.0 | 0.0 | 0.00 | 0.00 | 0.00 | 95 | 1017.9 |
| 20260901054017 | 18 | 162 | 0.0 | 0.0 | 0.00 | 0.00 | 0.00 | 95 | 1017.9 |
| 20260901053513 | 18 | 138 | 0.0 | 0.0 | 0.00 | 0.00 | 0.00 | 95 | 1018.0 |
| 20260901053009 | 18 | 132 | 0.0 | 0.0 | 0.00 | 0.00 | 0.00 | 95 | 1018.2 |
| 20260901052504 | 18 | 125 | 0.0 | 0.0 | 0.00 | 0.00 | 0.00 | 95 | 1018.0 |
| 20260901052003 | 18 | 137 | 0.0 | 0.0 | 0.00 | 0.00 | 0.00 | 95 | 1018.0 |
| 20260901051458 | 18 | 137 | 0.0 | 0.0 | 0.00 | 0.00 | 0.00 | 95 | 1018.2 |
| 20260901050957 | 18 | 136 | 0.0 | 0.0 | 0.00 | 0.00 | 0.00 | 95 | 1018.2 |
| 20260901050452 | 18 | 145 | 0.0 | 0.0 | 0.00 | 0.00 | 0.00 | 95 | 1017.8 |
| 20260901045947 | 18 | 147 | 0.0 | 0.0 | 0.00 | 0.00 | 0.00 | 95 | 1018.2 |
| 20260901045442 | 18 | 158 | 0.0 | 0.0 | 0.00 | 0.00 | 0.00 | 95 | 1018.2 |
| 20260901044937 | 18 | 155 | 0.0 | 0.0 | 0.00 | 0.00 | 0.00 | 95 | 1018.0 |
| 20260901044433 | 18 | 148 | 0.0 | 0.0 | 0.00 | 0.00 | 0.00 | 95 | 1018.0 |
| 20260901043928 | 18 | 148 | 0.0 | 0.0 | 0.00 | 0.00 | 0.00 | 95 | 1018.1 |
| 20260901043424 | 18 | 146 | 0.0 | 0.0 | 0.00 | 0.00 | 0.00 | 95 | 1018.1 |
| 20260901042918 | 18 | 155 | 0.0 | 0.0 | 0.00 | 0.00 | 0.00 | 95 | 1018.2 |
| 20260901042413 | 18 | 155 | 0.0 | 0.0 | 0.00 | 0.00 | 0.00 | 95 | 1018.2 |
| 20260901041908 | 18 | 157 | 0.0 | 0.0 | 0.00 | 0.00 | 0.00 | 95 | 1018.2 |
| 20260901041403 | 18 | 158 | 0.0 | 0.0 | 0.00 | 0.00 | 0.00 | 95 | 1018.0 |
| 20260901040902 | 18 | 157 | 0.0 | 0.0 | 0.00 | 0.00 | 0.00 | 95 | 1018.4 |
| 20260901040401 | 18 | 164 | 0.0 | 0.0 | 0.00 | 0.00 | 0.00 | 95 | 1018.1 |
| 20260901035856 | 18 | 164 | 0.0 | 0.0 | 0.00 | 0.99 | 0.99 | 95 | 1018.0 |
| 20260901035355 | 18 | 140 | 0.0 | 0.0 | 0.00 | 0.99 | 0.99 | 95 | 1018.0 |
| 20260901034853 | 18 | 140 | 0.0 | 0.0 | 0.00 | 0.99 | 0.99 | 95 | 1018.0 |
| 20260901034348 | 18 | 141 | 0.0 | 0.0 | 0.00 | 0.99 | 0.99 | 95 | 1018.3 |
| 20260901033844 | 18 | 140 | 0.0 | 0.0 | 0.00 | 0.99 | 0.99 | 95 | 1018.2 |
| 20260901033342 | 18 | 140 | 0.0 | 0.0 | 0.00 | 0.99 | 0.99 | 95 | 1018.1 |
| 20260901032841 | 18 | 141 | 0.0 | 0.0 | 0.00 | 0.99 | 0.99 | 95 | 1018.2 |
| 20260901032341 | 18 | 141 | 0.0 | 0.0 | 0.00 | 0.99 | 0.99 | 95 | 1018.3 |
| 20260901031836 | 18 | 141 | 0.0 | 0.0 | 0.00 | 0.99 | 0.99 | 95 | 1018.2 |
| 20260901031331 | 18 | 141 | 0.0 | 0.0 | 0.00 | 0.99 | 0.99 | 95 | 1018.3 |
| 20260901030825 | 18 | 141 | 0.0 | 0.0 | 0.00 | 0.99 | 0.99 | 95 | 1018.3 |
| 20260901030321 | 18 | 141 | 0.0 | 0.0 | 0.00 | 0.99 | 0.99 | 95 | 1018.3 |
| 20260901025820 | 18 | 141 | 0.0 | 0.0 | 0.00 | 0.99 | 0.99 | 95 | 1018.3 |
| 20260901025315 | 18 | 141 | 0.0 | 0.0 | 0.00 | 0.99 | 0.99 | 95 | 1018.3 |
| 20260901024810 | 18 | 140 | 0.0 | 0.0 | 0.00 | 0.99 | 0.99 | 95 | 1018.3 |
| 20260901024308 | 18 | 144 | 0.0 | 0.0 | 0.00 | 0.99 | 0.99 | 95 | 1018.2 |
| 20260901023801 | 18 | 143 | 0.0 | 0.0 | 0.00 | 0.99 | 0.99 | 95 | 1018.5 |
| 20260901023256 | 18 | 143 | 0.0 | 0.0 | 0.00 | 0.99 | 0.99 | 95 | 1018.3 |
| 20260901022752 | 18 | 143 | 0.0 | 0.0 | 0.00 | 0.99 | 0.99 | 95 | 1018.4 |
| 20260901022248 | 18 | 163 | 0.0 | 0.0 | 0.00 | 0.99 | 0.99 | 95 | 1018.5 |
| 20260901021742 | 18 | 152 | 0.0 | 0.0 | 0.00 | 0.99 | 0.99 | 95 | 1018.7 |
| 20260901021238 | 18 | 162 | 0.0 | 0.0 | 0.00 | 0.99 | 0.99 | 95 | 1018.5 |
| 20260901020733 | 18 | 160 | 0.0 | 0.0 | 0.00 | 0.99 | 0.99 | 95 | 1018.7 |
| 20260901020228 | 18 | 145 | 0.0 | 0.0 | 0.00 | 0.99 | 0.99 | 95 | 1018.8 |
| 20260901015723 | 18 | 154 | 0.0 | 0.0 | 0.00 | 0.99 | 0.99 | 95 | 1018.5 |
| 20260901015218 | 18 | 153 | 0.0 | 0.0 | 0.18 | 0.99 | 0.99 | 95 | 1018.8 |
| 20260901014713 | 18 | 154 | 0.0 | 0.0 | 0.18 | 0.99 | 0.99 | 95 | 1018.6 |
| 20260901014209 | 18 | 154 | 0.0 | 0.0 | 0.00 | 0.97 | 0.97 | 95 | 1018.6 |
| 20260901013704 | 18 | 154 | 0.0 | 0.0 | 0.13 | 0.97 | 0.97 | 95 | 1018.7 |
| 20260901013200 | 18 | 154 | 0.0 | 0.0 | 0.30 | 0.97 | 0.97 | 95 | 1018.8 |
| 20260901012655 | 18 | 154 | 0.0 | 0.0 | 0.18 | 0.94 | 0.94 | 95 | 1018.9 |
| 20260901012149 | 18 | 154 | 0.0 | 0.0 | 0.00 | 0.91 | 0.91 | 95 | 1018.9 |
| 20260901011640 | 18 | 154 | 0.0 | 0.0 | 0.00 | 0.91 | 0.91 | 95 | 1018.7 |
| 20260901011139 | 18 | 152 | 0.0 | 0.0 | 0.00 | 0.91 | 0.91 | 95 | 1018.7 |
| 20260901010633 | 18 | 156 | 0.0 | 0.0 | 0.00 | 0.91 | 0.91 | 95 | 1018.6 |
| 20260901010132 | 18 | 143 | 0.0 | 0.0 | 0.00 | 0.91 | 0.91 | 95 | 1018.7 |
| 20260901005626 | 18 | 129 | 0.0 | 0.0 | 0.00 | 0.91 | 0.91 | 95 | 1018.7 |
| 20260901005121 | 18 | 150 | 0.0 | 0.0 | 0.13 | 0.91 | 0.91 | 95 | 1018.4 |
| 20260901004621 | 18 | 130 | 0.0 | 0.0 | 0.13 | 0.91 | 0.91 | 95 | 1018.4 |
| 20260901004116 | 18 | 147 | 0.0 | 0.0 | 0.00 | 0.89 | 0.89 | 95 | 1018.7 |
| 20260901003612 | 18 | 130 | 0.0 | 0.0 | 0.00 | 0.89 | 0.89 | 95 | 1018.6 |
| 20260901003110 | 18 | 143 | 0.0 | 0.0 | 0.00 | 0.89 | 0.89 | 95 | 1018.5 |
| 20260901002610 | 18 | 117 | 0.0 | 0.0 | 0.00 | 0.89 | 0.89 | 95 | 1018.3 |
| 20260901002105 | 18 | 131 | 0.0 | 1.6 | 0.00 | 0.89 | 0.89 | 95 | 1018.2 |
| 20260901001559 | 18 | 125 | 3.2 | 3.2 | 0.00 | 0.89 | 0.89 | 95 | 1018.1 |
| 20260901001054 | 18 | 129 | 1.6 | 3.2 | 0.00 | 0.89 | 0.89 | 95 | 1018.1 |
| 20260901000549 | 18 | 130 | 3.2 | 3.2 | 0.00 | 0.89 | 0.89 | 95 | 1018.2 |
| 20260901000045 | 18 | 126 | 0.0 | 0.0 | 0.00 | 0.89 | 0.89 | 95 | 1018.2 |
| 20260831235538 | 18 | 135 | 1.6 | 1.6 | 0.00 | 0.89 | 0.89 | 95 | 1018.4 |
| 20260831235034 | 18 | 135 | 3.2 | 3.2 | 0.18 | 0.89 | 0.89 | 95 | 1018.3 |
| 20260831234528 | 18 | 122 | 0.0 | 0.0 | 0.18 | 0.89 | 0.89 | 95 | 1018.3 |
| 20260831234025 | 18 | 138 | 0.0 | 0.0 | 0.00 | 0.86 | 0.86 | 95 | 1018.5 |
| 20260831233520 | 18 | 138 | 0.0 | 0.0 | 0.00 | 0.86 | 0.86 | 95 | 1018.4 |
| 20260831233016 | 18 | 132 | 0.0 | 0.0 | 0.00 | 0.86 | 0.86 | 95 | 1018.3 |
| 20260831232511 | 18 | 116 | 1.6 | 1.6 | 0.00 | 0.86 | 0.86 | 95 | 1018.5 |
| 20260831232006 | 18 | 136 | 0.0 | 0.0 | 0.00 | 0.86 | 0.86 | 95 | 1018.5 |
| 20260831231502 | 18 | 146 | 0.0 | 0.0 | 0.00 | 0.86 | 0.86 | 95 | 1018.3 |
| 20260831230957 | 18 | 138 | 3.2 | 4.8 | 0.00 | 0.86 | 0.86 | 95 | 1018.6 |
| 20260831230453 | 18 | 151 | 0.0 | 0.0 | 0.00 | 0.86 | 0.86 | 95 | 1018.7 |
| 20260831225947 | 18 | 137 | 0.0 | 0.0 | 0.00 | 0.86 | 0.86 | 95 | 1018.9 |
| 20260831225443 | 18 | 139 | 0.0 | 0.0 | 0.00 | 0.86 | 0.86 | 95 | 1018.8 |
| 20260831224938 | 18 | 137 | 0.0 | 0.0 | 0.00 | 0.86 | 0.86 | 95 | 1018.8 |
| 20260831224437 | 18 | 142 | 0.0 | 0.0 | 0.00 | 0.86 | 0.86 | 95 | 1018.9 |
| 20260831223932 | 18 | 131 | 0.0 | 0.0 | 0.00 | 0.86 | 0.86 | 95 | 1019.0 |
| 20260831223428 | 18 | 145 | 0.0 | 0.0 | 0.00 | 0.86 | 0.86 | 95 | 1018.9 |
| 20260831222925 | 18 | 142 | 0.0 | 0.0 | 0.00 | 0.86 | 0.86 | 95 | 1019.0 |
| 20260831222420 | 18 | 140 | 0.0 | 0.0 | 0.18 | 0.86 | 0.86 | 95 | 1019.0 |
| 20260831221915 | 18 | 146 | 0.0 | 0.0 | 0.18 | 0.86 | 0.86 | 95 | 1019.2 |
| 20260831221411 | 18 | 127 | 0.0 | 0.0 | 0.13 | 0.84 | 0.84 | 95 | 1019.2 |
| 20260831220905 | 18 | 145 | 0.0 | 0.0 | 0.13 | 0.84 | 0.84 | 95 | 1019.2 |
| 20260831220355 | 18 | 144 | 0.0 | 0.0 | 0.18 | 0.81 | 0.81 | 95 | 1019.2 |
| 20260831215850 | 18 | 143 | 0.0 | 0.0 | 0.30 | 0.81 | 0.81 | 95 | 1019.5 |
| 20260831215346 | 18 | 152 | 0.0 | 0.0 | 0.00 | 0.76 | 0.76 | 95 | 1019.6 |
| 20260831214842 | 18 | 153 | 0.0 | 0.0 | 0.00 | 0.76 | 0.76 | 95 | 1019.4 |
| 20260831214339 | 18 | 151 | 0.0 | 0.0 | 0.18 | 0.76 | 0.76 | 95 | 1019.4 |
| 20260831213834 | 18 | 127 | 0.0 | 0.0 | 0.18 | 0.76 | 0.76 | 95 | 1019.4 |
| 20260831213331 | 18 | 141 | 0.0 | 0.0 | 0.13 | 0.74 | 0.74 | 95 | 1019.6 |
| 20260831212826 | 18 | 140 | 0.0 | 0.0 | 0.13 | 0.74 | 0.74 | 95 | 1019.5 |
| 20260831212322 | 18 | 140 | 1.6 | 1.6 | 0.18 | 0.71 | 0.71 | 95 | 1019.5 |
| 20260831211820 | 18 | 154 | 0.0 | 0.0 | 0.30 | 0.71 | 0.71 | 95 | 1019.5 |
| 20260831211316 | 18 | 148 | 0.0 | 0.0 | 0.43 | 0.69 | 0.69 | 95 | 1019.5 |
| 20260831210810 | 18 | 143 | 0.0 | 0.0 | 0.48 | 0.66 | 0.66 | 95 | 1019.5 |
| 20260831210307 | 18 | 132 | 0.0 | 0.0 | 0.18 | 0.61 | 0.61 | 95 | 1019.5 |
| 20260831205806 | 18 | 142 | 1.6 | 3.2 | 0.00 | 0.58 | 0.58 | 95 | 1019.6 |
| 20260831205305 | 18 | 148 | 0.0 | 0.0 | 0.00 | 0.58 | 0.58 | 95 | 1019.4 |
| 20260831204756 | 18 | 115 | 3.2 | 4.8 | 0.00 | 0.58 | 0.58 | 95 | 1019.4 |
| 20260831204255 | 18 | 135 | 4.8 | 4.8 | 0.13 | 0.58 | 0.58 | 95 | 1019.4 |
| 20260831203755 | 18 | 133 | 3.2 | 3.2 | 0.13 | 0.58 | 0.58 | 95 | 1019.5 |
| 20260831203249 | 18 | 131 | 4.8 | 4.8 | 0.00 | 0.56 | 0.56 | 95 | 1019.7 |
| 20260831202748 | 18 | 134 | 3.2 | 3.2 | 0.00 | 0.56 | 0.56 | 95 | 1019.6 |
| 20260831202242 | 18 | 140 | 1.6 | 1.6 | 0.00 | 0.56 | 0.56 | 95 | 1019.5 |
| 20260831201737 | 18 | 122 | 4.8 | 4.8 | 0.00 | 0.56 | 0.56 | 95 | 1019.4 |
| 20260831201236 | 18 | 121 | 0.0 | 0.0 | 0.00 | 0.56 | 0.56 | 95 | 1019.7 |
| 20260831200732 | 18 | 138 | 3.2 | 3.2 | 0.00 | 0.56 | 0.56 | 95 | 1019.8 |
| 20260831200232 | 18 | 129 | 1.6 | 1.6 | 0.00 | 0.56 | 0.56 | 95 | 1019.7 |
| 20260831195727 | 18 | 109 | 0.0 | 1.6 | 0.00 | 0.56 | 0.56 | 95 | 1019.8 |
| 20260831195223 | 18 | 116 | 4.8 | 4.8 | 0.00 | 0.56 | 0.56 | 95 | 1019.8 |
| 20260831194718 | 18 | 107 | 0.0 | 0.0 | 0.00 | 0.56 | 0.56 | 95 | 1019.7 |
| 20260831194214 | 18 | 114 | 1.6 | 1.6 | 0.00 | 0.56 | 0.56 | 95 | 1019.8 |
| 20260831193707 | 18 | 93 | 0.0 | 0.0 | 0.00 | 0.56 | 0.56 | 95 | 1020.0 |
| 20260831193202 | 18 | 121 | 4.8 | 8.0 | 0.00 | 0.56 | 0.56 | 95 | 1020.0 |
| 20260831192657 | 18 | 133 | 3.2 | 3.2 | 0.00 | 0.56 | 0.56 | 95 | 1020.0 |
| 20260831192153 | 18 | 120 | 3.2 | 3.2 | 0.00 | 0.56 | 0.56 | 95 | 1019.8 |
| 20260831191648 | 18 | 122 | 3.2 | 3.2 | 0.18 | 0.56 | 0.56 | 95 | 1020.1 |
| 20260831191144 | 18 | 128 | 3.2 | 3.2 | 0.18 | 0.56 | 0.56 | 95 | 1020.1 |
| 20260831190639 | 18 | 124 | 1.6 | 1.6 | 0.00 | 0.53 | 0.53 | 95 | 1020.0 |
| 20260831190138 | 18 | 135 | 1.6 | 3.2 | 0.00 | 0.53 | 0.53 | 95 | 1020.2 |
| 20260831185634 | 18 | 112 | 6.4 | 8.0 | 0.00 | 0.53 | 0.53 | 95 | 1020.1 |
| 20260831185130 | 18 | 153 | 3.2 | 3.2 | 0.00 | 0.53 | 0.53 | 95 | 1020.2 |
| 20260831184629 | 18 | 104 | 8.0 | 11.3 | 0.00 | 0.53 | 0.53 | 95 | 1020.3 |
| 20260831184125 | 18 | 129 | 6.4 | 9.7 | 0.00 | 0.53 | 0.53 | 95 | 1020.3 |
| 20260831183624 | 18 | 106 | 4.8 | 4.8 | 0.00 | 0.53 | 0.53 | 95 | 1020.6 |
| 20260831183124 | 18 | 161 | 3.2 | 3.2 | 0.00 | 0.53 | 0.53 | 95 | 1020.5 |
| 20260831182623 | 18 | 127 | 4.8 | 8.0 | 0.00 | 0.53 | 0.53 | 95 | 1020.6 |
| 20260831182119 | 18 | 131 | 3.2 | 4.8 | 0.00 | 0.53 | 0.53 | 95 | 1020.7 |
| 20260831181614 | 18 | 119 | 3.2 | 3.2 | 0.00 | 0.53 | 0.53 | 95 | 1020.7 |
| 20260831181114 | 18 | 108 | 4.8 | 4.8 | 0.00 | 0.53 | 0.53 | 95 | 1020.7 |
| 20260831180609 | 18 | 128 | 3.2 | 3.2 | 0.00 | 0.53 | 0.53 | 95 | 1020.9 |
| 20260831180104 | 18 | 142 | 1.6 | 1.6 | 0.00 | 0.53 | 0.53 | 95 | 1020.9 |
| 20260831175559 | 18 | 134 | 0.0 | 1.6 | 0.00 | 0.53 | 0.53 | 95 | 1020.7 |
| 20260831175056 | 18 | 129 | 1.6 | 1.6 | 0.00 | 0.53 | 0.53 | 95 | 1020.8 |
| 20260831174551 | 18 | 173 | 6.4 | 8.0 | 0.00 | 0.53 | 0.53 | 95 | 1021.1 |
| 20260831174050 | 18 | 118 | 3.2 | 4.8 | 0.18 | 0.53 | 0.53 | 95 | 1021.0 |
| 20260831173549 | 18 | 147 | 4.8 | 4.8 | 0.30 | 0.53 | 0.53 | 95 | 1021.0 |
| 20260831173045 | 18 | 141 | 3.2 | 4.8 | 0.13 | 0.51 | 0.51 | 95 | 1021.3 |
| 20260831172540 | 18 | 120 | 4.8 | 8.0 | 0.30 | 0.48 | 0.48 | 95 | 1021.2 |
| 20260831172035 | 18 | 124 | 3.2 | 4.8 | 0.48 | 0.48 | 0.48 | 95 | 1021.4 |
| 20260831171531 | 18 | 130 | 3.2 | 3.2 | 0.30 | 0.43 | 0.43 | 95 | 1021.3 |
| 20260831171027 | 18 | 104 | 4.8 | 4.8 | 0.30 | 0.41 | 0.41 | 95 | 1021.3 |
| 20260831170523 | 18 | 117 | 3.2 | 4.8 | 0.30 | 0.38 | 0.38 | 95 | 1021.4 |
| 20260831170021 | 18 | 129 | 4.8 | 4.8 | 0.13 | 0.36 | 0.36 | 95 | 1021.3 |
| 20260831165521 | 18 | 121 | 6.4 | 8.0 | 0.18 | 0.33 | 0.33 | 95 | 1021.3 |
| 20260831165018 | 18 | 121 | 3.2 | 3.2 | 0.18 | 0.33 | 0.33 | 95 | 1021.6 |
| 20260831164513 | 18 | 117 | 3.2 | 4.8 | 0.13 | 0.30 | 0.30 | 95 | 1021.6 |
| 20260831164009 | 18 | 111 | 4.8 | 8.0 | 0.30 | 0.30 | 0.30 | 95 | 1021.6 |
| 20260831163508 | 18 | 123 | 4.8 | 8.0 | 0.30 | 0.28 | 0.28 | 95 | 1021.6 |
| 20260831163004 | 18 | 130 | 1.6 | 3.2 | 0.61 | 0.25 | 0.25 | 95 | 1021.8 |
| 20260831162458 | 18 | 127 | 4.8 | 8.0 | 0.66 | 0.23 | 0.23 | 95 | 1021.6 |
| 20260831161955 | 18 | 129 | 4.8 | 4.8 | 0.48 | 0.15 | 0.15 | 95 | 1021.5 |
| 20260831161453 | 18 | 127 | 3.2 | 3.2 | 0.30 | 0.13 | 0.13 | 95 | 1021.7 |
| 20260831160948 | 18 | 157 | 0.0 | 1.6 | 0.13 | 0.08 | 0.08 | 94 | 1021.9 |
| 20260831160447 | 18 | 163 | 0.0 | 0.0 | 0.43 | 0.08 | 0.08 | 93 | 1022.0 |
| 20260831155948 | 18 | 164 | 0.0 | 0.0 | 0.30 | 0.05 | 0.05 | 92 | 1022.0 |
| 20260831155443 | 18 | 152 | 0.0 | 0.0 | 0.00 | 0.00 | 0.00 | 91 | 1021.7 |
| 20260831154938 | 18 | 128 | 3.2 | 3.2 | 0.00 | 0.00 | 0.00 | 91 | 1022.0 |
| 20260831154435 | 18 | 134 | 3.2 | 3.2 | 0.00 | 0.00 | 0.00 | 90 | 1021.8 |
| 20260831153933 | 18 | 138 | 1.6 | 1.6 | 0.00 | 0.00 | 0.00 | 90 | 1021.6 |
| 20260831153429 | 18 | 133 | 1.6 | 3.2 | 0.00 | 0.00 | 0.00 | 90 | 1022.0 |
| 20260831152925 | 18 | 128 | 1.6 | 1.6 | 0.00 | 0.00 | 0.00 | 90 | 1021.9 |
| 20260831152420 | 18 | 106 | 1.6 | 3.2 | 0.00 | 0.00 | 0.00 | 90 | 1021.8 |
| 20260831151915 | 18 | 118 | 3.2 | 3.2 | 0.00 | 0.00 | 0.00 | 91 | 1021.7 |
| 20260831151414 | 18 | 118 | 3.2 | 4.8 | 0.00 | 0.00 | 0.00 | 91 | 1021.9 |
| 20260831150910 | 18 | 103 | 4.8 | 8.0 | 0.00 | 0.00 | 0.00 | 91 | 1021.5 |
| 20260831150405 | 18 | 155 | 4.8 | 4.8 | 0.00 | 0.00 | 0.00 | 91 | 1021.6 |
| 20260831145904 | 18 | 139 | 3.2 | 3.2 | 0.00 | 0.00 | 0.00 | 91 | 1021.5 |